Location: Unspecified
(41.1637°N, 24.2901°E)
Time: 11:07:56
(UTC+02:00)

ISS - Pass Details

Date: 14 May 2026
Orbit: 414 x 424 km, 51.6° (Epoch: 12 May)

Event Time Altitude Azimuth Distance (km) Brightness Sun altitude
Rises 22:35:33 0° 307° (NW) 2,354 1.1 -25.4°
Reaches altitude 10° 22:38:18 10° 331° (NNW) 1,491 0.1 -25.6°
Maximum altitude 22:40:22 15° 10° (N) 1,208 -0.8 -25.8°
Enters shadow 22:41:23 14° 31° (NNE) 1,281 -1.0 -25.9°
